H1 CPF 2 NER 2022 11 25 9 329 01 glonass138 H2 1805301 9138 43508 2022 11 25 0 0 0 2022 11 28 23 45 0 900 1 1 0 0 0 1 H9 10 0 59908 0.00000 0 -15087383.900 -20546781.937 -181214.440 10 0 59908 900.00000 0 -15079534.608 -20270379.554 -3395341.808 10 0 59908 1800.00000 0 -14787380.964 -19705813.934 -6543379.178 10 0 59908 2700.00000 0 -14180634.707 -18901024.140 -9564049.590 10 0 59908 3600.00000 0 -13240553.635 -17910838.685 -12398565.476 10 0 59908 4500.00000 0 -11960969.045 -16794553.549 -14991780.506 10 0 59908 5400.00000 0 -10348790.654 -15613340.715 -17293268.119 10 0 59908 6300.00000 0 -8423966.848 -14427597.566 -19258305.187 10 0 59908 7200.00000 0 -6218901.298 -13294349.760 -20848741.396 10 0 59908 8100.00000 0 -3777350.007 -12264817.450 -22033737.649 10 0 59908 9000.00000 0 -1152844.592 -11382247.374 -22790359.591 10 0 59908 9900.00000 0 1593292.434 -10680101.730 -23104015.375 10 0 59908 10800.00000 0 4394257.908 -10180679.247 -22968730.055 10 0 59908 11700.00000 0 7180307.901 -9894225.445 -22387252.132 10 0 59908 12600.00000 0 9881421.984 -9818568.303 -21370990.981 10 0 59908 13500.00000 0 12429981.801 -9939293.418 -19939787.076 10 0 59908 14400.00000 0 14763353.461 -10230450.135 -18121519.941 10 0 59908 15300.00000 0 16826267.365 -10655757.889 -15951561.758 10 0 59908 16200.00000 0 18572897.690 -11170261.231 -13472087.377 10 0 59908 17100.00000 0 19968556.258 -11722363.198 -10731254.050 10 0 59908 18000.00000 0 20990931.509 -12256151.045 -7782266.780 10 0 59908 18900.00000 0 21630822.254 -12713916.102 -4682347.203 10 0 59908 19800.00000 0 21892336.893 -13038761.458 -1491625.824 10 0 59908 20700.00000 0 21792550.903 -13177187.512 1728021.017 10 0 59908 21600.00000 0 21360638.051 -13081546.377 4914167.080 10 0 59908 22500.00000 0 20636512.563 -12712261.585 8005042.113 10 0 59908 23400.00000 0 19669039.845 -12039719.408 10940724.384 10 0 59908 24300.00000 0 18513891.184 -11045751.786 13664297.121 10 0 59908 25200.00000 0 17231132.592 -9724647.882 16122946.763 10 0 59908 26100.00000 0 15882648.856 -8083650.934 18268982.128 10 0 59908 27000.00000 0 14529510.558 -6142918.449 20060755.270 10 0 59908 27900.00000 0 13229394.010 -3934945.910 21463466.690 10 0 59908 28800.00000 0 12034161.778 -1503476.548 22449839.711 10 0 59908 29700.00000 0 10987704.684 1098059.179 23000651.327 10 0 59908 30600.00000 0 10124135.251 3808511.288 23105109.377 10 0 59908 31500.00000 0 9466408.065 6561305.006 22761068.629 10 0 59908 32400.00000 0 9025424.779 9286968.879 21975081.233 10 0 59908 33300.00000 0 8799661.392 11915792.635 20762279.903 10 0 59908 34200.00000 0 8775333.790 14380505.382 19146095.237 10 0 59908 35100.00000 0 8927094.990 16618863.568 17157811.620 10 0 59908 36000.00000 0 9219235.220 18576041.392 14835969.248 10 0 59908 36900.00000 0 9607334.704 20206724.048 12225622.883 10 0 59908 37800.00000 0 10040299.653 21476816.257 9377470.940 10 0 59908 38700.00000 0 10462695.461 22364694.341 6346871.268 10 0 59908 39600.00000 0 10817278.103 22861948.963 3192762.658 10 0 59908 40500.00000 0 11047615.934 22973587.192 -23486.691 10 0 59908 41400.00000 0 11100689.830 22717685.293 -3239280.814 10 0 59908 42300.00000 0 10929360.325 22124507.103 -6392023.297 10 0 59908 43200.00000 0 10494595.782 21235125.645 -9420345.368 10 0 59908 44100.00000 0 9767365.852 20099606.848 -12265309.685 10 0 59908 45000.00000 0 8730118.702 18774832.936 -14871565.240 10 0 59908 45900.00000 0 7377778.366 17322058.295 -17188430.049 10 0 59908 46800.00000 0 5718219.081 15804301.819 -19170880.007 10 0 59908 47700.00000 0 3772195.817 14283686.381 -20780424.341 10 0 59908 48600.00000 0 1572733.318 12818837.929 -21985850.830 10 0 59908 49500.00000 0 -836001.232 11462453.672 -22763826.724 10 0 59908 50400.00000 0 -3400295.011 10259141.290 -23099344.356 10 0 59908 51300.00000 0 -6058889.465 9243619.166 -22986003.640 10 0 59908 52200.00000 0 -8745300.287 8439352.097 -22426126.856 10 0 59908 53100.00000 0 -11390361.155 7857678.449 -21430704.292 10 0 59908 54000.00000 0 -13924885.990 7497463.838 -20019172.533 10 0 59908 54900.00000 0 -16282339.646 7345294.379 -18219030.159 10 0 59908 55800.00000 0 -18401406.739 7376199.937 -16065298.681 10 0 59908 56700.00000 0 -20228352.670 7554875.701 -13599839.280 10 0 59908 57600.00000 0 -21719079.615 7837349.629 -10870538.571 10 0 59908 58500.00000 0 -22840792.809 8173024.770 -7930379.132 10 0 59908 59400.00000 0 -23573208.773 8507009.852 -4836412.640 10 0 59908 60300.00000 0 -23909256.090 8782639.483 -1648655.325 10 0 59908 61200.00000 0 -23855240.408 8944077.502 1571072.936 10 0 59908 62100.00000 0 -23430467.685 8938893.487 4760343.554 10 0 59908 63000.00000 0 -22666342.194 8720503.635 7857325.235 10 0 59908 63900.00000 0 -21604977.596 8250372.912 10801977.779 10 0 59908 64800.00000 0 -20297379.675 7499885.389 13537210.836 10 0 59908 65700.00000 0 -18801276.962 6451803.501 16009985.538 10 0 59908 66600.00000 0 -17178690.044 5101254.183 18172337.984 10 0 59908 67500.00000 0 -15493341.044 3456199.447 19982305.295 10 0 59908 68400.00000 0 -13808011.193 1537370.358 21404736.799 10 0 59908 69300.00000 0 -12181956.486 -622334.342 22411975.056 10 0 59908 70200.00000 0 -10668488.871 -2978961.643 22984393.908 10 0 59908 71100.00000 0 -9312823.413 -5479085.179 23110783.295 10 0 59908 72000.00000 0 -8150281.032 -8061789.653 22788573.292 10 0 59908 72900.00000 0 -7204921.514 -10660978.017 22023892.665 10 0 59908 73800.00000 0 -6488663.801 -13207907.072 20831460.202 10 0 59908 74700.00000 0 -6000930.393 -15633847.223 19234310.045 10 0 59908 75600.00000 0 -5728830.824 -17872756.678 17263355.359 10 0 59908 76500.00000 0 -5647876.662 -19863859.227 14956797.669 10 0 59908 77400.00000 0 -5723198.151 -21554018.189 12359392.390 10 0 59908 78300.00000 0 -5911211.235 -22899807.209 9521583.951 10 0 59908 79200.00000 0 -6161664.534 -23869190.871 6498526.751 10 0 59908 80100.00000 0 -6419979.344 -24442744.080 3349010.866 10 0 59908 81000.00000 0 -6629783.015 -24614358.573 134313.591 10 0 59908 81900.00000 0 -6735527.426 -24391406.430 -3083000.288 10 0 59908 82800.00000 0 -6685080.425 -23794353.518 -6240305.163 10 0 59908 83700.00000 0 -6432178.998 -22855839.309 -9276143.269 10 0 59908 84600.00000 0 -5938638.799 -21619262.228 -12131430.292 10 0 59908 85500.00000 0 -5176225.046 -20136930.842 -14750613.257 10 0 59909 0.00000 0 -4128104.451 -18467859.765 -17082757.127 10 0 59909 900.00000 0 -2789815.097 -16675303.023 -19082539.553 10 0 59909 1800.00000 0 -1169713.917 -14824131.735 -20711131.049 10 0 59909 2700.00000 0 711119.632 -12978163.894 -21936947.804 10 0 59909 3600.00000 0 2819518.885 -11197560.771 -22736259.724 10 0 59909 4500.00000 0 5111378.521 -9536398.164 -23093643.846 10 0 59909 5400.00000 0 7533268.561 -8040513.784 -23002274.944 10 0 59909 6300.00000 0 10024446.758 -6745719.926 -22464048.588 10 0 59909 7200.00000 0 12519185.723 -5676454.961 -21489535.043 10 0 59909 8100.00000 0 14949318.284 -4844928.492 -20097765.647 10 0 59909 9000.00000 0 17246895.628 -4250794.230 -18315856.309 10 0 59909 9900.00000 0 19346848.095 -3881362.591 -16178475.753 10 0 59909 10800.00000 0 21189538.595 -3712342.434 -13727169.014 10 0 59909 11700.00000 0 22723103.054 -3709079.277 -11009549.224 10 0 59909 12600.00000 0 23905481.105 -3828236.751 -8078373.371 10 0 59909 13500.00000 0 24706053.168 -4019849.500 -4990519.729 10 0 59909 14400.00000 0 25106816.391 -4229660.353 -1805886.639 10 0 59909 15300.00000 0 25103051.041 -4401642.740 1413766.154 10 0 59909 16200.00000 0 24703450.192 -4480601.620 4606011.294 10 0 59909 17100.00000 0 23929707.822 -4414742.998 7708959.808 10 0 59909 18000.00000 0 22815582.985 -4158103.438 10662456.050 10 0 59909 18900.00000 0 21405479.465 -3672736.907 13409238.704 10 0 59909 19800.00000 0 19752600.380 -2930566.437 15896045.734 10 0 59909 20700.00000 0 17916754.802 -1914822.138 18074642.175 10 0 59909 21600.00000 0 15961907.727 -621004.271 19902751.392 10 0 59909 22500.00000 0 13953575.246 942670.109 21344872.284 10 0 59909 23400.00000 0 11956173.046 2755357.054 22372966.971 10 0 59909 24300.00000 0 10030428.203 4784210.029 22967006.085 10 0 59909 25200.00000 0 8230961.443 6985514.395 23115361.250 10 0 59909 26100.00000 0 6604140.127 9306286.605 22815037.067 10 0 59909 27000.00000 0 5186290.918 11686273.348 22071737.802 10 0 59909 27900.00000 0 4002346.265 14060269.127 20899766.874 10 0 59909 28800.00000 0 3064981.030 16360657.113 19321760.227 10 0 59909 29700.00000 0 2374275.163 18520068.568 17368257.783 10 0 59909 30600.00000 0 1917916.459 20474050.614 15077120.139 10 0 59909 31500.00000 0 1671934.877 22163631.213 12492800.900 10 0 59909 32400.00000 0 1601937.367 23537674.005 9665487.863 10 0 59909 33300.00000 0 1664790.942 24554923.980 6650129.191 10 0 59909 34200.00000 0 1810682.518 25185657.483 3505363.343 10 0 59909 35100.00000 0 1985467.715 25412866.535 292373.742 10 0 59909 36000.00000 0 2133208.288 25232926.958 -2926308.986 10 0 59909 36900.00000 0 2198789.498 24655721.659 -6088032.936 10 0 59909 37800.00000 0 2130505.154 23704213.584 -9131254.094 10 0 59909 38700.00000 0 1882499.324 22413486.385 -11996743.684 10 0 59909 39600.00000 0 1416959.870 20829293.501 -14628749.003 10 0 59909 40500.00000 0 705969.602 19006177.317 -16976084.259 10 0 59909 41400.00000 0 -267064.384 17005238.181 -18993129.610 10 0 59909 42300.00000 0 -1506464.457 14891647.761 -20640718.571 10 0 59909 43200.00000 0 -3003859.926 12732011.686 -21886896.699 10 0 59909 44100.00000 0 -4738306.588 10591692.329 -22707537.190 10 0 59909 45000.00000 0 -6676943.664 8532203.871 -23086802.081 10 0 59909 45900.00000 0 -8776160.919 6608788.140 -23017440.939 10 0 59909 46800.00000 0 -10983227.402 4868271.720 -22500922.131 10 0 59909 47700.00000 0 -13238313.965 3347292.619 -21547394.953 10 0 59909 48600.00000 0 -15476825.471 2070969.056 -20175484.088 10 0 59909 49500.00000 0 -17631945.846 1052064.132 -18411920.895 10 0 59909 50400.00000 0 -19637290.241 290679.519 -16291019.041 10 0 59909 51300.00000 0 -21429554.287 -225510.954 -13854004.804 10 0 59909 52200.00000 0 -22951050.575 -520499.406 -11148214.999 10 0 59909 53100.00000 0 -24152027.037 -628687.210 -8226178.043 10 0 59909 54000.00000 0 -24992671.119 -593187.685 -5144595.789 10 0 59909 54900.00000 0 -25444716.554 -463760.650 -1963245.669 10 0 59909 55800.00000 0 -25492586.097 -294466.608 1256175.663 10 0 59909 56700.00000 0 -25134022.874 -141140.015 4451244.954 10 0 59909 57600.00000 0 -24380184.279 -58788.560 7560018.322 10 0 59909 58500.00000 0 -23255194.721 -99028.399 10522227.292 10 0 59909 59400.00000 0 -21795175.990 -307663.702 13280442.015 10 0 59909 60300.00000 0 -20046795.697 -722512.812 15781179.471 10 0 59909 61200.00000 0 -18065394.196 -1371572.909 17975935.511 10 0 59909 62100.00000 0 -15912767.753 -2271600.975 19822121.268 10 0 59909 63000.00000 0 -13654699.838 -3427171.510 21283886.308 10 0 59909 63900.00000 0 -11358342.777 -4830251.632 22332812.977 10 0 59909 64800.00000 0 -9089558.011 -6460312.755 22948468.920 10 0 59909 65700.00000 0 -6910324.848 -8284975.819 23118807.240 10 0 59909 66600.00000 0 -4876324.845 -10261164.867 22840406.484 10 0 59909 67500.00000 0 -3034801.598 -12336722.647 22118545.509 10 0 59909 68400.00000 0 -1422784.515 -14452422.631 20967111.156 10 0 59909 69300.00000 0 -65750.173 -16544294.996 19408339.720 10 0 59909 70200.00000 0 1023223.227 -18546170.792 17472396.187 10 0 59909 71100.00000 0 1843773.183 -20392338.924 15196798.332 10 0 59909 72000.00000 0 2408028.886 -22020205.227 12625695.839 10 0 59909 72900.00000 0 2739855.526 -23372842.361 9809017.594 10 0 59909 73800.00000 0 2873599.034 -24401323.249 6801503.085 10 0 59909 74700.00000 0 2852384.620 -25066739.346 3661636.594 10 0 59909 75600.00000 0 2726041.661 -25341818.062 450505.046 10 0 59909 76500.00000 0 2548743.635 -25212070.329 -2769397.765 10 0 59909 77400.00000 0 2376464.123 -24676419.110 -5935396.324 10 0 59909 78300.00000 0 2264357.981 -23747281.738 -8985863.044 10 0 59909 79200.00000 0 2264180.095 -22450102.207 -11861427.325 10 0 59909 80100.00000 0 2421852.457 -20822353.076 -14506139.276 10 0 59909 81000.00000 0 2775283.932 -18912049.189 -16868564.561 10 0 59909 81900.00000 0 3352536.125 -16775836.103 -18902788.434 10 0 59909 82800.00000 0 4170413.765 -14476734.087 -20569309.057 10 0 59909 83700.00000 0 5233539.785 -12081632.768 -21835802.834 10 0 59909 84600.00000 0 6533954.577 -9658641.655 -22677747.301 10 0 59909 85500.00000 0 8051256.534 -7274407.492 -23078890.074 10 0 59910 0.00000 0 9753278.033 -4991510.365 -23031555.648 10 0 59910 900.00000 0 11597269.603 -2866045.322 -22536784.851 10 0 59910 1800.00000 0 13531540.460 -945492.412 -21604305.259 10 0 59910 2700.00000 0 15497490.047 733041.606 -20252333.782 10 0 59910 3600.00000 0 17431943.650 2144135.161 -18507215.762 10 0 59910 4500.00000 0 19269695.683 3274865.727 -16402907.985 10 0 59910 5400.00000 0 20946154.652 4125093.437 -13980315.807 10 0 59910 6300.00000 0 22399979.734 4707204.538 -11286497.212 10 0 59910 7200.00000 0 23575599.196 5045327.214 -8373749.206 10 0 59910 8100.00000 0 24425505.811 5174054.313 -5298594.089 10 0 59910 9000.00000 0 24912233.698 5136728.003 -2120685.057 10 0 59910 9900.00000 0 25009934.151 4983359.547 1098347.759 10 0 59910 10800.00000 0 24705484.799 4768272.624 4296088.618 10 0 59910 11700.00000 0 23999085.802 4547570.038 7410541.988 10 0 59910 12600.00000 0 22904318.137 4376530.968 10381329.584 10 0 59910 13500.00000 0 21447661.454 4307048.696 13150855.708 10 0 59910 14400.00000 0 19667491.310 4385217.012 15665418.663 10 0 59910 15300.00000 0 17612597.296 4649167.145 17876247.028 10 0 59910 16200.00000 0 15340283.271 5127246.601 19740441.216 10 0 59910 17100.00000 0 12914128.143 5836617.022 21221802.591 10 0 59910 18000.00000 0 10401499.639 6782330.691 22291534.488 10 0 59910 18900.00000 0 7870923.578 7956925.482 22928801.968 10 0 59910 19800.00000 0 5389417.015 9340556.568 23121139.659 10 0 59910 20700.00000 0 3019895.297 10901660.855 22864699.730 10 0 59910 21600.00000 0 818759.850 12598128.039 22164334.921 10 0 59910 22500.00000 0 -1166233.699 14378931.061 21033514.419 10 0 59910 23400.00000 0 -2897738.898 16186149.294 19494073.410 10 0 59910 24300.00000 0 -4350140.361 17957301.297 17575800.155 10 0 59910 25200.00000 0 -5510379.332 19627890.528 15315867.502 10 0 59910 26100.00000 0 -6378248.626 21134057.978 12758118.871 10 0 59910 27000.00000 0 -6966144.876 22415230.692 9952221.682 10 0 59910 27900.00000 0 -7298288.816 23416654.702 6952704.043 10 0 59910 28800.00000 0 -7409446.833 24091705.225 3817893.235 10 0 59910 29700.00000 0 -7343208.382 24403875.971 608776.770 10 0 59910 30600.00000 0 -7149892.877 24328362.714 -2612191.339 10 0 59910 31500.00000 0 -6884175.659 23853173.220 -5782314.896 10 0 59910 32400.00000 0 -6602534.819 22979715.846 -8839885.590 10 0 59910 33300.00000 0 -6360628.398 21722841.154 -11725393.681 10 0 59910 34200.00000 0 -6210714.422 20110334.412 -14382694.560 10 0 59910 35100.00000 0 -6199224.362 18181880.127 -16760107.546 10 0 59910 36000.00000 0 -6364593.811 15987542.239 -18811424.893 10 0 59910 36900.00000 0 -6735443.005 13585824.086 -20496810.998 10 0 59910 37800.00000 0 -7329184.653 11041389.801 -21783574.392 10 0 59910 38700.00000 0 -8151118.161 8422542.747 -22646797.902 10 0 59910 39600.00000 0 -9194048.551 5798566.522 -23069815.344 10 0 59910 40500.00000 0 -10438446.101 3237039.310 -23044526.340 10 0 59910 41400.00000 0 -11853139.933 801232.979 -22571544.048 10 0 59910 42300.00000 0 -13396516.353 -1452295.547 -21660173.757 10 0 59910 43200.00000 0 -15018171.644 -3475821.621 -20328223.551 10 0 59910 44100.00000 0 -16660950.172 -5232192.324 -18601651.239 10 0 59910 45000.00000 0 -18263282.546 -6696117.250 -16514054.785 10 0 59910 45900.00000 0 -19761726.182 -7854958.798 -14106016.309 10 0 59910 46800.00000 0 -21093602.238 -8708990.912 -11424312.346 10 0 59910 47700.00000 0 -22199618.759 -9271117.343 -8521005.665 10 0 59910 48600.00000 0 -23026370.535 -9566062.997 -5452436.045 10 0 59910 49500.00000 0 -23528611.198 -9629073.859 -2278129.386 10 0 59910 50400.00000 0 -23671202.546 -9504181.338 940353.789 10 0 59910 51300.00000 0 -23430659.540 -9242105.062 4140608.347 10 0 59910 52200.00000 0 -22796226.207 -8897883.130 7260590.167 10 0 59910 53100.00000 0 -21770437.243 -8528330.084 10239814.115 10 0 59910 54000.00000 0 -20369141.525 -8189430.005 13020521.466 10 0 59910 54900.00000 0 -18620986.056 -7933774.700 15548794.443 10 0 59910 55800.00000 0 -16566381.322 -7808154.928 17775596.639 10 0 59910 56700.00000 0 -14255990.443 -7851406.209 19657719.658 10 0 59910 57600.00000 0 -11748804.146 -8092599.997 21158618.124 10 0 59910 58500.00000 0 -9109880.699 -8549656.661 22249117.350 10 0 59910 59400.00000 0 -6407843.691 -9228439.125 22907980.305 10 0 59910 60300.00000 0 -3712240.432 -10122366.137 23122323.172 10 0 59910 61200.00000 0 -1090869.669 -11212562.505 22887871.350 10 0 59910 62100.00000 0 1392811.461 -12468541.370 22209050.695 10 0 59910 63000.00000 0 3682094.462 -13849391.461 21098911.657 10 0 59910 63900.00000 0 5729141.044 -15305421.037 19578886.950 10 0 59910 64800.00000 0 7496731.542 -16780191.001 17678386.494 10 0 59910 65700.00000 0 8959567.693 -18212853.090 15434236.358 10 0 59910 66600.00000 0 10105075.592 -19540695.709 12889971.594 10 0 59910 67500.00000 0 10933675.487 -20701790.853 10094995.809 10 0 59910 68400.00000 0 11458507.357 -21637630.661 7103623.157 10 0 59910 69300.00000 0 11704624.143 -22295642.057 3974021.153 10 0 59910 70200.00000 0 11707687.146 -22631472.636 767074.990 10 0 59910 71100.00000 0 11512219.410 -22610950.238 -2454804.065 10 0 59910 72000.00000 0 11169491.803 -22211632.288 -5628902.115 10 0 59910 72900.00000 0 10735132.415 -21423878.314 -8693433.030 10 0 59910 73800.00000 0 10266561.729 -20251399.311 -11588750.735 10 0 59910 74700.00000 0 9820363.502 -18711259.989 -14258518.529 10 0 59910 75600.00000 0 9449703.930 -16833333.249 -16650811.795 10 0 59910 76500.00000 0 9201909.401 -14659229.585 -18719131.925 10 0 59910 77400.00000 0 9116306.131 -12240746.356 -20423311.354 10 0 59910 78300.00000 0 9222413.491 -9637902.058 -21730292.153 10 0 59910 79200.00000 0 9538567.544 -6916637.972 -22614763.427 10 0 59910 80100.00000 0 10071032.775 -4146283.326 -23059645.727 10 0 59910 81000.00000 0 10813639.203 -1396889.568 -23056413.926 10 0 59910 81900.00000 0 11747959.796 1263455.654 -22605253.171 10 0 59910 82800.00000 0 12844020.337 3771223.598 -21715045.748 10 0 59910 83700.00000 0 14061511.586 6069841.766 -20403189.866 10 0 59910 84600.00000 0 15351452.637 8111795.105 -18695254.430 10 0 59910 85500.00000 0 16658235.505 9860345.127 -16624476.910 10 0 59911 0.00000 0 17921965.109 11290797.073 -14231114.450 10 0 59911 900.00000 0 19080997.216 12391264.863 -11561659.439 10 0 59911 1800.00000 0 20074566.375 13162901.862 -8667938.050 10 0 59911 2700.00000 0 20845396.021 13619592.193 -5606104.720 10 0 59911 3600.00000 0 21342179.686 13787115.162 -2435555.036 10 0 59911 4500.00000 0 21521829.979 13701820.045 782223.249 10 0 59911 5400.00000 0 21351400.875 13408867.929 3984838.783 10 0 59911 6300.00000 0 20809602.545 12960115.376 7110201.954 10 0 59911 7200.00000 0 19887844.976 12411729.541 10097723.722 10 0 59911 8100.00000 0 18590766.192 11821635.468 12889485.029 10 0 59911 9000.00000 0 16936222.386 11246903.189 15431354.435 10 0 59911 9900.00000 0 14954739.584 10741184.578 17674032.651 10 0 59911 10800.00000 0 12688448.797 10352307.763 19574004.246 10 0 59911 11700.00000 0 10189547.900 10120130.220 21094378.571 10 0 59911 12600.00000 0 7518353.130 10074740.816 22205604.038 10 0 59911 13500.00000 0 4741019.884 10235086.567 22886042.330 10 0 59911 14400.00000 0 1927026.177 10608082.204 23122391.616 10 0 59911 15300.00000 0 -853477.999 11188240.622 22909950.575 10 0 59911 16200.00000 0 -3532346.612 11957840.642 22252717.828 10 0 59911 17100.00000 0 -6046028.804 12887626.224 21163324.296 10 0 59911 18000.00000 0 -8337968.506 13938008.982 19662799.013 10 0 59911 18900.00000 0 -10360713.353 15060724.767 17780171.938 10 0 59911 19800.00000 0 -12077645.535 16200875.847 15551920.376 10 0 59911 20700.00000 0 -13464262.537 17299273.597 13021268.733 10 0 59911 21600.00000 0 -14508954.481 18294983.622 10237354.312 10 0 59911 22500.00000 0 -15213245.617 19127966.123 7254274.657 10 0 59911 23400.00000 0 -15591489.998 19741699.777 4130034.771 10 0 59911 24300.00000 0 -15670034.518 20085677.597 925414.731 10 0 59911 25200.00000 0 -15485885.137 20117668.279 -2297219.779 10 0 59911 26100.00000 0 -15084933.354 19805646.178 -5475139.972 10 0 59911 27000.00000 0 -14519818.904 19129307.046 -8546484.678 10 0 59911 27900.00000 0 -13847520.241 18081104.194 -11451474.155 10 0 59911 28800.00000 0 -13126775.992 16666760.276 -14133582.139 10 0 59911 29700.00000 0 -12415447.728 14905232.248 -16540642.378 10 0 59911 30600.00000 0 -11767936.656 12828130.359 -18625867.451 10 0 59911 31500.00000 0 -11232764.271 10478615.322 -20348759.582 10 0 59911 32400.00000 0 -10850419.685 7909819.729 -21675895.829 10 0 59911 33300.00000 0 -10651564.635 5182859.741 -22581572.703 10 0 59911 34200.00000 0 -10655671.696 2364520.186 -23048298.294 10 0 59911 35100.00000 0 -10870152.621 -475290.571 -23067123.183 10 0 59911 36000.00000 0 -11290012.872 -3266210.278 -22637804.620 10 0 59911 36900.00000 0 -11898046.153 -5940106.383 -21768801.607 10 0 59911 37800.00000 0 -12665560.035 -8433662.831 -20477101.805 10 0 59911 38700.00000 0 -13553601.597 -10690763.681 -18787884.151 10 0 59911 39600.00000 0 -14514631.039 -12664575.685 -16734024.177 10 0 59911 40500.00000 0 -15494572.681 -14319244.784 -14355451.796 10 0 59911 41400.00000 0 -16435156.972 -15631137.542 -11698374.036 10 0 59911 42300.00000 0 -17276455.046 -16589577.412 -8814377.746 10 0 59911 43200.00000 0 -17959499.352 -17197046.810 -5759429.511 10 0 59911 44100.00000 0 -18428880.235 -17468848.157 -2592791.943 10 0 59911 45000.00000 0 -18635209.390 -17432239.450 624122.747 10 0 59911 45900.00000 0 -18537346.577 -17125081.859 3828939.874 10 0 59911 46800.00000 0 -18104295.931 -16594057.074 6959527.292 10 0 59911 47700.00000 0 -17316691.913 -15892529.981 9955195.055 10 0 59911 48600.00000 0 -16167812.099 -15078146.933 12757866.750 10 0 59911 49500.00000 0 -14664073.672 -14210270.806 15313200.154 10 0 59911 50400.00000 0 -12824991.987 -13347360.638 17571635.799 10 0 59911 51300.00000 0 -10682601.861 -12544405.865 19489353.645 10 0 59911 52200.00000 0 -8280364.447 -11850522.712 21029119.837 10 0 59911 53100.00000 0 -5671603.908 -11306813.499 22161007.546 10 0 59911 54000.00000 0 -2917537.413 -10944578.587 22862978.354 10 0 59911 54900.00000 0 -84978.756 -10783956.046 23121313.169 10 0 59911 55800.00000 0 2756190.442 -10833046.384 22930884.242 10 0 59911 56700.00000 0 5535678.413 -11087559.516 22295262.833 10 0 59911 57600.00000 0 8185460.740 -11530999.512 21226659.838 10 0 59911 58500.00000 0 10642367.373 -12135380.224 19745699.751 10 0 59911 59400.00000 0 12850472.418 -12862442.675 17881031.377 10 0 59911 60300.00000 0 14763187.715 -13665323.912 15668781.724 10 0 59911 61200.00000 0 16344973.099 -14490607.872 13151862.681 10 0 59911 62100.00000 0 17572592.033 -15280672.291 10379143.002 10 0 59911 63000.00000 0 18435860.050 -15976232.826 7404501.036 10 0 59911 63900.00000 0 18937854.585 -16518976.692 4285776.352 10 0 59911 64800.00000 0 19094577.531 -16854173.854 1083640.744 10 0 59911 65700.00000 0 18934085.044 -16933154.339 -2139589.023 10 0 59911 66600.00000 0 18495121.784 -16715545.629 -5321172.672 10 0 59911 67500.00000 0 17825318.098 -16171174.067 -8399177.335 10 0 59911 68400.00000 0 16979027.273 -15281548.475 -11313692.794 10 0 59911 69300.00000 0 16014895.414 -14040861.970 -14008006.180 10 0 59911 70200.00000 0 14993267.839 -12456468.627 -16429712.288 10 0 59911 71100.00000 0 13973542.625 -10548813.955 -18531737.223 10 0 59911 72000.00000 0 13011583.953 -8350821.570 -20273254.978 10 0 59911 72900.00000 0 12157304.957 -5906761.384 -21620479.176 10 0 59911 73800.00000 0 11452522.143 -3270646.474 -22547314.889 10 0 59911 74700.00000 0 10929171.593 -504225.555 -23035858.463 10 0 59911 75600.00000 0 10607961.489 2325345.373 -23076736.483 10 0 59911 76500.00000 0 10497516.760 5148055.471 -22669278.170 10 0 59911 77400.00000 0 10594050.866 7893709.776 -21821518.744 10 0 59911 78300.00000 0 10881577.374 10494607.801 -20550034.457 10 0 59911 79200.00000 0 11332651.442 12888119.604 -18879613.104 10 0 59911 80100.00000 0 11909609.097 15019053.255 -16842766.785 10 0 59911 81000.00000 0 12566251.484 16841716.583 -14479096.632 10 0 59911 81900.00000 0 13249902.714 18321588.805 -11834521.791 10 0 59911 82800.00000 0 13903754.389 19436533.834 -8960387.609 10 0 59911 83700.00000 0 14469397.955 20177506.169 -5912470.166 10 0 59911 84600.00000 0 14889438.185 20548721.377 -2749896.201 10 0 59911 85500.00000 0 15110077.731 20567285.277 466000.681 99